| time (UTC) | temp F | wind direction | speed MPH | gust MPH | rain 1hr in | rain 24hr in | rain mn in | humidity % | barometer mb |
| 20260904093504 | 72 | 190 | 1.0 | 13.0 | 0.01 | 0.45 | 0.02 | 91 | 1013.7 |
| 20260904093023 | 72 | 162 | 7.0 | 16.0 | 0.01 | 0.45 | 0.02 | 91 | 1013.6 |
| 20260904092504 | 72 | 63 | 10.0 | 16.0 | 0.01 | 0.45 | 0.02 | 91 | 1013.8 |
| 20260904092005 | 72 | 128 | 5.0 | 10.0 | 0.01 | 0.45 | 0.02 | 92 | 1013.9 |
| 20260904091525 | 72 | 61 | 4.0 | 5.0 | 0.01 | 0.45 | 0.02 | 92 | 1013.7 |
| 20260904091003 | 72 | 64 | 1.0 | 2.0 | 0.01 | 0.45 | 0.02 | 92 | 1013.4 |
| 20260904090505 | 72 | 100 | 0.0 | 2.0 | 0.01 | 0.45 | 0.02 | 92 | 1013.2 |
| 20260904090025 | 72 | 87 | 0.0 | 2.0 | 0.01 | 0.45 | 0.02 | 92 | 1013.2 |
| 20260904085504 | 73 | 5 | 0.0 | 2.0 | 0.02 | 0.45 | 0.02 | 92 | 1013.2 |
| 20260904085010 | 72 | 38 | 1.0 | 2.0 | 0.02 | 0.45 | 0.02 | 91 | 1013.1 |
| 20260904084526 | 72 | 112 | 1.0 | 2.0 | 0.02 | 0.45 | 0.02 | 91 | 1012.9 |
| 20260904084003 | 72 | 109 | 0.0 | 2.0 | 0.01 | 0.44 | 0.01 | 91 | 1013.1 |
| 20260904083505 | 72 | 107 | 0.0 | 2.0 | 0.01 | 0.44 | 0.01 | 91 | 1013.3 |
| 20260904083028 | 72 | 9 | 1.0 | 2.0 | 0.01 | 0.44 | 0.01 | 91 | 1013.3 |
| 20260904082504 | 72 | 258 | 2.0 | 2.0 | 0.01 | 0.44 | 0.01 | 91 | 1013.0 |
| 20260904082008 | 72 | 297 | 1.0 | 2.0 | 0.01 | 0.44 | 0.01 | 91 | 1012.9 |
| 20260904081530 | 72 | 300 | 1.0 | 2.0 | 0.01 | 0.44 | 0.01 | 91 | 1012.8 |
| 20260904081003 | 72 | 232 | 0.0 | 2.0 | 0.01 | 0.44 | 0.01 | 91 | 1012.7 |
| 20260904080514 | 72 | 205 | 0.0 | 2.0 | 0.01 | 0.44 | 0.01 | 90 | 1013.0 |
| 20260904080029 | 72 | 168 | 0.0 | 2.0 | 0.01 | 0.44 | 0.01 | 90 | 1013.3 |
| 20260904075504 | 73 | 159 | 0.0 | 2.0 | 0.00 | 0.43 | 0.00 | 90 | 1013.2 |
| 20260904075014 | 73 | 157 | 0.0 | 2.0 | 0.00 | 0.43 | 0.00 | 90 | 1013.3 |
| 20260904074537 | 73 | 142 | 0.0 | 2.0 | 0.00 | 0.43 | 0.00 | 89 | 1013.4 |
| 20260904074004 | 73 | 130 | 0.0 | 2.0 | 0.00 | 0.43 | 0.00 | 89 | 1013.5 |
| 20260904073508 | 73 | 67 | 0.0 | 3.0 | 0.00 | 0.43 | 0.00 | 89 | 1013.5 |
| 20260904073004 | 73 | 78 | 1.0 | 3.0 | 0.00 | 0.43 | 0.00 | 88 | 1013.7 |
| 20260904072517 | 73 | 68 | 1.0 | 2.0 | 0.00 | 0.43 | 0.00 | 88 | 1013.9 |
| 20260904072009 | 73 | 134 | 0.0 | 2.0 | 0.00 | 0.43 | 0.00 | 88 | 1013.6 |
| 20260904071505 | 73 | 94 | 0.0 | 6.0 | 0.00 | 0.43 | 0.00 | 88 | 1013.5 |
| 20260904071008 | 73 | 113 | 2.0 | 5.0 | 0.00 | 0.43 | 0.00 | 88 | 1013.4 |
| 20260904070516 | 73 | 82 | 0.0 | 4.0 | 0.00 | 0.43 | 0.00 | 88 | 1013.6 |
| 20260904070025 | 73 | 114 | 1.0 | 8.0 | 0.00 | 0.43 | 0.00 | 88 | 1013.6 |
| 20260904065508 | 72 | 65 | 3.0 | 9.0 | 0.00 | 0.43 | 0.00 | 89 | 1013.6 |
| 20260904065013 | 72 | 75 | 4.0 | 9.0 | 0.00 | 0.43 | 0.00 | 89 | 1013.8 |
| 20260904064508 | 72 | 38 | 5.0 | 9.0 | 0.00 | 0.43 | 0.00 | 89 | 1013.8 |
| 20260904064007 | 72 | 65 | 3.0 | 9.0 | 0.00 | 0.43 | 0.00 | 89 | 1013.9 |
| 20260904063512 | 72 | 93 | 4.0 | 7.0 | 0.00 | 0.43 | 0.00 | 89 | 1014.0 |
| 20260904063014 | 72 | 41 | 4.0 | 7.0 | 0.00 | 0.43 | 0.00 | 89 | 1013.9 |
| 20260904062508 | 72 | 53 | 3.0 | 5.0 | 0.00 | 0.43 | 0.00 | 89 | 1013.9 |
| 20260904062015 | 72 | 65 | 2.0 | 6.0 | 0.00 | 0.43 | 0.00 | 89 | 1013.9 |
| 20260904061513 | 72 | 75 | 3.0 | 6.0 | 0.00 | 0.43 | 0.00 | 90 | 1013.9 |
| 20260904061015 | 72 | 42 | 3.0 | 4.0 | 0.00 | 0.43 | 0.00 | 90 | 1014.1 |
| 20260904060515 | 72 | 71 | 2.0 | 7.0 | 0.00 | 0.43 | 0.00 | 90 | 1014.0 |
| 20260904060013 | 72 | 15 | 2.0 | 7.0 | 0.00 | 0.43 | 0.00 | 90 | 1014.4 |
| 20260904055509 | 72 | 265 | 1.0 | 3.0 | 0.00 | 0.43 | 0.00 | 90 | 1014.3 |
| 20260904055015 | 72 | 53 | 2.0 | 10.0 | 0.00 | 0.43 | 0.00 | 89 | 1014.1 |
| 20260904054529 | 72 | 12 | 3.0 | 10.0 | 0.00 | 0.43 | 0.00 | 89 | 1014.4 |
| 20260904054011 | 73 | 31 | 5.0 | 9.0 | 0.00 | 0.43 | 0.00 | 89 | 1014.5 |
| 20260904053516 | 73 | 318 | 1.0 | 6.0 | 0.00 | 0.43 | 0.00 | 89 | 1014.4 |
| 20260904053013 | 73 | 59 | 3.0 | 6.0 | 0.00 | 0.43 | 0.00 | 88 | 1014.4 |
| 20260904052512 | 73 | 76 | 3.0 | 5.0 | 0.00 | 0.43 | 0.00 | 88 | 1014.5 |
| 20260904052015 | 73 | 83 | 1.0 | 2.0 | 0.00 | 0.43 | 0.00 | 88 | 1014.3 |
| 20260904051517 | 73 | 84 | 0.0 | 2.0 | 0.00 | 0.43 | 0.00 | 89 | 1014.4 |
| 20260904051015 | 73 | 76 | 0.0 | 3.0 | 0.00 | 0.43 | 0.00 | 89 | 1014.7 |
| 20260904050517 | 72 | 44 | 1.0 | 2.0 | 0.00 | 0.43 | 0.00 | 89 | 1014.5 |
| 20260904050021 | 72 | 100 | 0.0 | 2.0 | 0.00 | 0.43 | 0.00 | 89 | 1014.4 |
| 20260904045517 | 72 | 156 | 1.0 | 2.0 | 0.00 | 0.43 | 0.43 | 89 | 1014.5 |
| 20260904045014 | 72 | 280 | 0.0 | 3.0 | 0.00 | 0.43 | 0.43 | 89 | 1014.5 |
| 20260904044529 | 72 | 150 | 0.0 | 3.0 | 0.00 | 0.43 | 0.43 | 89 | 1014.4 |
| 20260904044014 | 72 | 142 | 1.0 | 3.0 | 0.00 | 0.43 | 0.43 | 89 | 1014.6 |
| 20260904043503 | 72 | 101 | 1.0 | 3.0 | 0.00 | 0.43 | 0.43 | 89 | 1014.9 |
| 20260904043024 | 72 | 59 | 2.0 | 3.0 | 0.00 | 0.43 | 0.43 | 88 | 1015.0 |
| 20260904042513 | 72 | 32 | 0.0 | 3.0 | 0.00 | 0.43 | 0.43 | 88 | 1014.9 |
| 20260904042022 | 72 | 58 | 0.0 | 3.0 | 0.00 | 0.43 | 0.43 | 88 | 1014.5 |
| 20260904041528 | 72 | 94 | 1.0 | 3.0 | 0.00 | 0.43 | 0.43 | 88 | 1014.4 |
| 20260904041017 | 72 | 47 | 0.0 | 5.0 | 0.00 | 0.43 | 0.43 | 88 | 1014.6 |
| 20260904040503 | 72 | 53 | 2.0 | 5.0 | 0.00 | 0.43 | 0.43 | 88 | 1014.7 |
| 20260904040028 | 72 | 59 | 2.0 | 4.0 | 0.00 | 0.43 | 0.43 | 88 | 1014.8 |
| 20260904035516 | 72 | 54 | 2.0 | 4.0 | 0.00 | 0.43 | 0.43 | 87 | 1014.7 |
| 20260904035008 | 72 | 47 | 2.0 | 4.0 | 0.00 | 0.43 | 0.43 | 87 | 1014.7 |
| 20260904034542 | 72 | 76 | 1.0 | 2.0 | 0.00 | 0.43 | 0.43 | 86 | 1014.6 |
| 20260904034003 | 72 | 78 | 0.0 | 2.0 | 0.00 | 0.43 | 0.43 | 86 | 1014.7 |
| 20260904033508 | 73 | 36 | 1.0 | 2.0 | 0.00 | 0.43 | 0.43 | 86 | 1014.7 |
| 20260904033030 | 72 | 67 | 0.0 | 2.0 | 0.00 | 0.43 | 0.43 | 86 | 1014.7 |
| 20260904032515 | 72 | 94 | 0.0 | 2.0 | 0.00 | 0.43 | 0.43 | 86 | 1014.7 |
| 20260904032006 | 72 | 79 | 1.0 | 2.0 | 0.00 | 0.43 | 0.43 | 86 | 1014.8 |
| 20260904031530 | 72 | 96 | 1.0 | 2.0 | 0.00 | 0.43 | 0.43 | 86 | 1015.0 |
| 20260904031003 | 72 | 86 | 0.0 | 2.0 | 0.00 | 0.43 | 0.43 | 86 | 1015.0 |
| 20260904030509 | 72 | 94 | 0.0 | 2.0 | 0.00 | 0.43 | 0.43 | 86 | 1015.0 |
| 20260904030034 | 72 | 112 | 0.0 | 2.0 | 0.00 | 0.43 | 0.43 | 86 | 1015.0 |
| 20260904025507 | 72 | 55 | 0.0 | 2.0 | 0.00 | 0.43 | 0.43 | 85 | 1014.9 |
| 20260904025020 | 73 | 109 | 0.0 | 2.0 | 0.00 | 0.43 | 0.43 | 85 | 1014.8 |
| 20260904024531 | 73 | 99 | 0.0 | 2.0 | 0.00 | 0.43 | 0.43 | 85 | 1014.8 |
| 20260904024004 | 73 | 96 | 1.0 | 2.0 | 0.00 | 0.43 | 0.43 | 84 | 1015.0 |
| 20260904023509 | 73 | 65 | 1.0 | 3.0 | 0.00 | 0.43 | 0.43 | 84 | 1015.0 |
| 20260904023032 | 73 | 67 | 1.0 | 3.0 | 0.00 | 0.43 | 0.43 | 84 | 1014.8 |
| 20260904022503 | 73 | 109 | 0.0 | 3.0 | 0.00 | 0.43 | 0.43 | 83 | 1014.6 |
| 20260904022012 | 73 | 113 | 1.0 | 4.0 | 0.00 | 0.43 | 0.43 | 83 | 1014.6 |
| 20260904021531 | 73 | 68 | 1.0 | 4.0 | 0.00 | 0.43 | 0.43 | 82 | 1014.5 |
| 20260904021007 | 74 | 110 | 2.0 | 4.0 | 0.00 | 0.43 | 0.43 | 82 | 1014.4 |
| 20260904020514 | 74 | 85 | 0.0 | 3.0 | 0.00 | 0.43 | 0.43 | 82 | 1014.4 |
| 20260904020031 | 74 | 115 | 1.0 | 3.0 | 0.00 | 0.43 | 0.43 | 82 | 1014.6 |
| 20260904015505 | 74 | 80 | 0.0 | 2.0 | 0.00 | 0.43 | 0.43 | 83 | 1014.5 |
| 20260904015013 | 74 | 27 | 1.0 | 3.0 | 0.00 | 0.43 | 0.43 | 83 | 1014.6 |
| 20260904014509 | 74 | 59 | 2.0 | 5.0 | 0.00 | 0.43 | 0.43 | 82 | 1014.5 |
| 20260904014012 | 74 | 35 | 2.0 | 5.0 | 0.00 | 0.43 | 0.43 | 82 | 1014.5 |
| 20260904013514 | 74 | 69 | 2.0 | 4.0 | 0.00 | 0.43 | 0.43 | 82 | 1014.2 |
| 20260904013009 | 74 | 58 | 1.0 | 5.0 | 0.00 | 0.43 | 0.43 | 81 | 1014.3 |
| 20260904012509 | 74 | 80 | 3.0 | 5.0 | 0.00 | 0.43 | 0.43 | 80 | 1014.3 |
| 20260904012016 | 74 | 65 | 2.0 | 3.0 | 0.00 | 0.43 | 0.43 | 80 | 1014.2 |
| 20260904011532 | 74 | 70 | 1.0 | 3.0 | 0.00 | 0.43 | 0.43 | 80 | 1014.1 |
| 20260904011011 | 74 | 55 | 0.0 | 4.0 | 0.00 | 0.43 | 0.43 | 80 | 1014.1 |
| 20260904010516 | 74 | 68 | 1.0 | 4.0 | 0.00 | 0.43 | 0.43 | 81 | 1014.1 |
| 20260904010012 | 74 | 66 | 2.0 | 4.0 | 0.00 | 0.43 | 0.43 | 81 | 1014.0 |
| 20260904005515 | 74 | 28 | 2.0 | 4.0 | 0.00 | 0.43 | 0.43 | 81 | 1013.8 |
| 20260904005013 | 74 | 71 | 2.0 | 4.0 | 0.00 | 0.43 | 0.43 | 81 | 1013.8 |
| 20260904004514 | 75 | 54 | 3.0 | 4.0 | 0.00 | 0.43 | 0.43 | 81 | 1013.9 |
| 20260904004010 | 75 | 51 | 2.0 | 7.0 | 0.00 | 0.43 | 0.43 | 81 | 1013.7 |
| 20260904003521 | 75 | 34 | 1.0 | 7.0 | 0.00 | 0.43 | 0.43 | 80 | 1013.6 |
| 20260904003014 | 75 | 53 | 2.0 | 6.0 | 0.00 | 0.43 | 0.43 | 80 | 1013.6 |
| 20260904002510 | 75 | 58 | 2.0 | 7.0 | 0.00 | 0.43 | 0.43 | 80 | 1013.6 |
| 20260904002018 | 75 | 49 | 2.0 | 7.0 | 0.00 | 0.43 | 0.43 | 80 | 1013.8 |
| 20260904001516 | 76 | 86 | 2.0 | 5.0 | 0.00 | 0.43 | 0.43 | 80 | 1013.7 |
| 20260904001004 | 76 | 82 | 2.0 | 6.0 | 0.00 | 0.43 | 0.43 | 79 | 1013.7 |
| 20260904000504 | 76 | 55 | 3.0 | 6.0 | 0.00 | 0.43 | 0.43 | 79 | 1013.8 |
| 20260904000007 | 76 | 165 | 1.0 | 4.0 | 0.00 | 0.43 | 0.43 | 79 | 1013.7 |
| 20260903235503 | 76 | 121 | 1.0 | 6.0 | 0.00 | 0.43 | 0.43 | 79 | 1013.9 |
| 20260903235003 | 76 | 37 | 4.0 | 6.0 | 0.00 | 0.43 | 0.43 | 78 | 1013.7 |
| 20260903234505 | 76 | 55 | 1.0 | 7.0 | 0.00 | 0.43 | 0.43 | 78 | 1013.7 |
| 20260903234003 | 76 | 30 | 3.0 | 7.0 | 0.00 | 0.43 | 0.43 | 78 | 1013.5 |
| 20260903233504 | 77 | 58 | 3.0 | 9.0 | 0.00 | 0.43 | 0.43 | 78 | 1013.5 |
| 20260903233016 | 77 | 102 | 3.0 | 8.0 | 0.00 | 0.43 | 0.43 | 78 | 1013.5 |
| 20260903232504 | 77 | 71 | 3.0 | 11.0 | 0.00 | 0.43 | 0.43 | 78 | 1013.8 |
| 20260903232003 | 77 | 96 | 2.0 | 11.0 | 0.00 | 0.43 | 0.43 | 77 | 1013.7 |
| 20260903231504 | 77 | 90 | 3.0 | 6.0 | 0.00 | 0.43 | 0.43 | 77 | 1013.5 |
| 20260903231002 | 77 | 72 | 1.0 | 5.0 | 0.00 | 0.43 | 0.43 | 76 | 1013.5 |
| 20260903230505 | 77 | 91 | 1.0 | 9.0 | 0.00 | 0.43 | 0.43 | 75 | 1013.3 |
| 20260903230012 | 78 | 173 | 3.0 | 9.0 | 0.00 | 0.43 | 0.43 | 75 | 1013.3 |
| 20260903225506 | 78 | 138 | 3.0 | 9.0 | 0.00 | 0.43 | 0.43 | 74 | 1013.4 |
| 20260903225004 | 79 | 22 | 3.0 | 9.0 | 0.00 | 0.43 | 0.43 | 76 | 1013.4 |
| 20260903224508 | 79 | 117 | 3.0 | 9.0 | 0.00 | 0.43 | 0.43 | 78 | 1013.5 |
| 20260903224004 | 79 | 56 | 2.0 | 8.0 | 0.00 | 0.43 | 0.43 | 79 | 1013.6 |
| 20260903223505 | 80 | 155 | 4.0 | 8.0 | 0.00 | 0.43 | 0.43 | 78 | 1013.5 |
| 20260903223010 | 80 | 94 | 2.0 | 5.0 | 0.00 | 0.43 | 0.43 | 79 | 1013.4 |
| 20260903222503 | 80 | 93 | 0.0 | 6.0 | 0.00 | 0.43 | 0.43 | 80 | 1013.4 |
| 20260903222003 | 79 | 63 | 2.0 | 7.0 | 0.00 | 0.43 | 0.43 | 81 | 1013.4 |
| 20260903221508 | 79 | 111 | 3.0 | 7.0 | 0.00 | 0.43 | 0.43 | 81 | 1013.4 |
| 20260903221003 | 80 | 115 | 3.0 | 7.0 | 0.00 | 0.43 | 0.43 | 81 | 1013.5 |
| 20260903220503 | 80 | 95 | 2.0 | 5.0 | 0.00 | 0.43 | 0.43 | 81 | 1013.6 |
| 20260903220008 | 80 | 68 | 2.0 | 5.0 | 0.00 | 0.43 | 0.43 | 80 | 1013.5 |
| 20260903215503 | 79 | 86 | 2.0 | 6.0 | 0.00 | 0.43 | 0.43 | 80 | 1013.7 |
| 20260903215005 | 80 | 68 | 3.0 | 6.0 | 0.00 | 0.43 | 0.43 | 80 | 1013.7 |
| 20260903214509 | 79 | 93 | 3.0 | 5.0 | 0.00 | 0.43 | 0.43 | 80 | 1013.6 |
| 20260903214003 | 80 | 54 | 3.0 | 5.0 | 0.00 | 0.43 | 0.43 | 79 | 1013.6 |
| 20260903213502 | 80 | 111 | 0.0 | 4.0 | 0.00 | 0.43 | 0.43 | 80 | 1013.5 |
| 20260903213010 | 80 | 136 | 2.0 | 3.0 | 0.00 | 0.43 | 0.43 | 79 | 1013.5 |
| 20260903212510 | 80 | 80 | 1.0 | 5.0 | 0.00 | 0.43 | 0.43 | 78 | 1013.4 |
| 20260903212004 | 80 | 53 | 2.0 | 5.0 | 0.00 | 0.43 | 0.43 | 78 | 1013.3 |
| 20260903211518 | 80 | 123 | 1.0 | 7.0 | 0.00 | 0.43 | 0.43 | 79 | 1013.3 |
| 20260903211006 | 79 | 24 | 3.0 | 7.0 | 0.00 | 0.43 | 0.43 | 80 | 1013.4 |
| 20260903210504 | 79 | 90 | 2.0 | 8.0 | 0.00 | 0.43 | 0.43 | 79 | 1013.5 |
| 20260903210013 | 79 | 131 | 3.0 | 8.0 | 0.00 | 0.43 | 0.43 | 79 | 1013.5 |
| 20260903205507 | 79 | 51 | 3.0 | 8.0 | 0.00 | 0.43 | 0.43 | 79 | 1013.6 |
| 20260903205005 | 79 | 56 | 3.0 | 9.0 | 0.00 | 0.43 | 0.43 | 79 | 1013.7 |
| 20260903204515 | 80 | 65 | 5.0 | 9.0 | 0.00 | 0.43 | 0.43 | 78 | 1013.8 |
| 20260903204006 | 80 | 51 | 5.0 | 8.0 | 0.00 | 0.43 | 0.43 | 78 | 1013.8 |
| 20260903203507 | 81 | 55 | 4.0 | 7.0 | 0.00 | 0.43 | 0.43 | 78 | 1013.8 |
| 20260903203026 | 81 | 68 | 1.0 | 3.0 | 0.00 | 0.43 | 0.43 | 76 | 1013.8 |
| 20260903202508 | 81 | 78 | 1.0 | 3.0 | 0.00 | 0.43 | 0.43 | 77 | 1013.8 |
| 20260903202004 | 80 | 90 | 0.0 | 4.0 | 0.00 | 0.43 | 0.43 | 79 | 1013.6 |
| 20260903201513 | 79 | 177 | 1.0 | 4.0 | 0.00 | 0.43 | 0.43 | 80 | 1013.6 |
| 20260903201007 | 79 | 173 | 0.0 | 3.0 | 0.00 | 0.43 | 0.43 | 80 | 1013.6 |
| 20260903200508 | 79 | 229 | 1.0 | 3.0 | 0.00 | 0.43 | 0.43 | 81 | 1013.6 |
| 20260903200012 | 79 | 160 | 0.0 | 2.0 | 0.00 | 0.43 | 0.43 | 83 | 1013.5 |
| 20260903195510 | 79 | 230 | 1.0 | 2.0 | 0.00 | 0.43 | 0.43 | 82 | 1013.5 |
| 20260903195007 | 79 | 194 | 0.0 | 3.0 | 0.00 | 0.43 | 0.43 | 82 | 1013.3 |
| 20260903194512 | 79 | 263 | 1.0 | 5.0 | 0.00 | 0.43 | 0.43 | 82 | 1013.4 |
| 20260903194010 | 79 | 192 | 2.0 | 5.0 | 0.00 | 0.43 | 0.43 | 81 | 1013.4 |
| 20260903193506 | 79 | 205 | 0.0 | 2.0 | 0.00 | 0.43 | 0.43 | 81 | 1013.5 |
| 20260903193020 | 79 | 298 | 0.0 | 2.0 | 0.00 | 0.43 | 0.43 | 82 | 1013.6 |
| 20260903192507 | 78 | 185 | 1.0 | 3.0 | 0.00 | 0.43 | 0.43 | 83 | 1013.5 |
| 20260903192007 | 78 | 172 | 1.0 | 4.0 | 0.00 | 0.43 | 0.43 | 82 | 1013.7 |
| 20260903191515 | 78 | 215 | 1.0 | 6.0 | 0.00 | 0.43 | 0.43 | 82 | 1013.9 |
| 20260903191007 | 77 | 254 | 3.0 | 6.0 | 0.00 | 0.43 | 0.43 | 83 | 1014.0 |
| 20260903190510 | 78 | 227 | 2.0 | 4.0 | 0.01 | 0.43 | 0.43 | 82 | 1013.9 |
| 20260903190018 | 77 | 231 | 2.0 | 4.0 | 0.01 | 0.43 | 0.43 | 81 | 1013.8 |
| 20260903185509 | 77 | 205 | 1.0 | 8.0 | 0.01 | 0.43 | 0.43 | 82 | 1013.9 |
| 20260903185011 | 77 | 242 | 2.0 | 8.0 | 0.01 | 0.43 | 0.43 | 82 | 1013.9 |
| 20260903184517 | 77 | 205 | 3.0 | 8.0 | 0.01 | 0.43 | 0.43 | 82 | 1014.1 |
| 20260903184010 | 77 | 281 | 3.0 | 5.0 | 0.01 | 0.43 | 0.43 | 83 | 1014.1 |
| 20260903183509 | 78 | 237 | 2.0 | 7.0 | 0.01 | 0.43 | 0.43 | 82 | 1014.1 |
| 20260903183020 | 78 | 175 | 2.0 | 7.0 | 0.01 | 0.43 | 0.43 | 84 | 1014.1 |
| 20260903182508 | 78 | 236 | 3.0 | 6.0 | 0.01 | 0.43 | 0.43 | 83 | 1014.1 |
| 20260903182008 | 77 | 234 | 3.0 | 4.0 | 0.03 | 0.43 | 0.43 | 87 | 1014.3 |
| 20260903181518 | 76 | 248 | 1.0 | 3.0 | 0.03 | 0.43 | 0.43 | 90 | 1014.2 |
| 20260903181003 | 76 | 160 | 0.0 | 3.0 | 0.03 | 0.43 | 0.43 | 90 | 1014.2 |
| 20260903180507 | 75 | 130 | 1.0 | 3.0 | 0.02 | 0.42 | 0.42 | 88 | 1014.3 |
| 20260903180023 | 75 | 292 | 1.0 | 4.0 | 0.02 | 0.42 | 0.42 | 88 | 1015.0 |
| 20260903175502 | 74 | 288 | 1.0 | 6.0 | 0.02 | 0.42 | 0.42 | 87 | 1014.6 |
| 20260903175007 | 74 | 334 | 2.0 | 6.0 | 0.02 | 0.42 | 0.42 | 87 | 1014.9 |
| 20260903174524 | 74 | 240 | 1.0 | 6.0 | 0.02 | 0.42 | 0.42 | 89 | 1014.7 |
| 20260903174009 | 74 | 211 | 1.0 | 6.0 | 0.03 | 0.42 | 0.42 | 91 | 1014.1 |
| 20260903173506 | 73 | 64 | 4.0 | 6.0 | 0.03 | 0.42 | 0.42 | 90 | 1013.7 |
| 20260903173023 | 73 | 64 | 0.0 | 3.0 | 0.03 | 0.42 | 0.42 | 91 | 1014.1 |
| 20260903172504 | 73 | 69 | 1.0 | 5.0 | 0.03 | 0.42 | 0.42 | 91 | 1014.2 |
| 20260903172007 | 72 | 235 | 2.0 | 5.0 | 0.01 | 0.40 | 0.40 | 91 | 1014.7 |
| 20260903171506 | 72 | 93 | 3.0 | 6.0 | 0.01 | 0.40 | 0.40 | 92 | 1013.8 |
| 20260903171003 | 72 | 146 | 2.0 | 6.0 | 0.02 | 0.40 | 0.40 | 92 | 1014.1 |
| 20260903170507 | 71 | 53 | 1.0 | 6.0 | 0.03 | 0.40 | 0.40 | 92 | 1014.5 |
| 20260903170007 | 71 | 148 | 1.0 | 4.0 | 0.04 | 0.40 | 0.40 | 92 | 1015.1 |
| 20260903165505 | 71 | 169 | 0.0 | 3.0 | 0.06 | 0.40 | 0.40 | 92 | 1015.2 |
| 20260903165009 | 71 | 201 | 1.0 | 3.0 | 0.08 | 0.40 | 0.40 | 92 | 1015.7 |
| 20260903164505 | 71 | 163 | 0.0 | 5.0 | 0.10 | 0.40 | 0.40 | 92 | 1015.7 |
| 20260903164006 | 71 | 150 | 3.0 | 8.0 | 0.10 | 0.39 | 0.39 | 92 | 1016.1 |
| 20260903163509 | 71 | 207 | 2.0 | 10.0 | 0.11 | 0.39 | 0.39 | 92 | 1016.5 |
| 20260903163005 | 71 | 215 | 3.0 | 10.0 | 0.13 | 0.39 | 0.39 | 92 | 1016.9 |
| 20260903162508 | 71 | 235 | 3.0 | 8.0 | 0.15 | 0.39 | 0.39 | 92 | 1017.2 |
| 20260903162011 | 71 | 263 | 2.0 | 3.0 | 0.17 | 0.39 | 0.39 | 92 | 1016.7 |
| 20260903161507 | 71 | 196 | 0.0 | 2.0 | 0.17 | 0.39 | 0.39 | 91 | 1016.5 |
| 20260903161010 | 71 | 160 | 0.0 | 5.0 | 0.17 | 0.38 | 0.38 | 91 | 1016.2 |
| 20260903160513 | 71 | 126 | 0.0 | 5.0 | 0.16 | 0.37 | 0.37 | 91 | 1016.0 |
| 20260903160006 | 71 | 74 | 2.0 | 5.0 | 0.24 | 0.36 | 0.36 | 91 | 1016.1 |
| 20260903155507 | 70 | 65 | 1.0 | 5.0 | 0.25 | 0.34 | 0.34 | 91 | 1016.1 |
| 20260903155011 | 70 | 57 | 3.0 | 11.0 | 0.29 | 0.32 | 0.32 | 90 | 1016.5 |
| 20260903154508 | 70 | 174 | 2.0 | 11.0 | 0.30 | 0.30 | 0.30 | 90 | 1017.4 |
| 20260903154006 | 70 | 128 | 7.0 | 11.0 | 0.29 | 0.29 | 0.29 | 90 | 1017.5 |
| 20260903153514 | 70 | 201 | 3.0 | 10.0 | 0.28 | 0.28 | 0.28 | 90 | 1016.6 |
| 20260903153011 | 70 | 275 | 4.0 | 10.0 | 0.26 | 0.26 | 0.26 | 90 | 1016.3 |
| 20260903152510 | 70 | 243 | 2.0 | 6.0 | 0.24 | 0.24 | 0.24 | 89 | 1016.2 |
| 20260903152012 | 70 | 238 | 2.0 | 8.0 | 0.22 | 0.22 | 0.22 | 89 | 1016.3 |
| 20260903151512 | 70 | 260 | 4.0 | 8.0 | 0.22 | 0.22 | 0.22 | 89 | 1016.3 |
| 20260903151011 | 70 | 257 | 2.0 | 11.0 | 0.21 | 0.21 | 0.21 | 88 | 1016.2 |
| 20260903150514 | 70 | 334 | 5.0 | 11.0 | 0.21 | 0.21 | 0.21 | 86 | 1016.6 |
| 20260903150023 | 70 | 80 | 2.0 | 8.0 | 0.12 | 0.12 | 0.12 | 84 | 1016.8 |
| 20260903145512 | 71 | 343 | 1.0 | 3.0 | 0.09 | 0.09 | 0.09 | 83 | 1016.4 |
| 20260903145019 | 71 | 92 | 2.0 | 4.0 | 0.03 | 0.03 | 0.03 | 79 | 1015.8 |
| 20260903144537 | 72 | 67 | 1.0 | 8.0 | 0.00 | 0.00 | 0.00 | 78 | 1015.7 |
| 20260903144013 | 72 | 352 | 3.0 | 6.0 | 0.00 | 0.00 | 0.00 | 76 | 1015.8 |
| 20260903143513 | 72 | 25 | 2.0 | 5.0 | 0.00 | 0.00 | 0.00 | 76 | 1015.8 |
| 20260903143017 | 73 | 287 | 1.0 | 5.0 | 0.00 | 0.00 | 0.00 | 76 | 1015.7 |
| 20260903142510 | 73 | 17 | 1.0 | 6.0 | 0.00 | 0.00 | 0.00 | 76 | 1015.8 |
| 20260903142003 | 73 | 352 | 2.0 | 14.0 | 0.00 | 0.00 | 0.00 | 76 | 1015.8 |
| 20260903141515 | 72 | 70 | 4.0 | 14.0 | 0.00 | 0.00 | 0.00 | 78 | 1015.4 |
| 20260903141016 | 72 | 62 | 10.0 | 15.0 | 0.00 | 0.00 | 0.00 | 80 | 1015.3 |
| 20260903140503 | 72 | 38 | 5.0 | 15.0 | 0.00 | 0.00 | 0.00 | 81 | 1015.4 |
| 20260903140022 | 72 | 67 | 4.0 | 15.0 | 0.00 | 0.00 | 0.00 | 81 | 1015.6 |
| 20260903135513 | 72 | 66 | 3.0 | 14.0 | 0.00 | 0.00 | 0.00 | 82 | 1015.6 |
| 20260903135004 | 72 | 103 | 2.0 | 14.0 | 0.00 | 0.00 | 0.00 | 80 | 1015.6 |
| 20260903134518 | 73 | 9 | 5.0 | 14.0 | 0.00 | 0.00 | 0.00 | 78 | 1015.4 |
| 20260903134012 | 73 | 168 | 4.0 | 14.0 | 0.00 | 0.00 | 0.00 | 77 | 1015.6 |
| 20260903133505 | 73 | 77 | 9.0 | 14.0 | 0.00 | 0.00 | 0.00 | 76 | 1015.5 |
| 20260903133018 | 74 | 92 | 6.0 | 11.0 | 0.00 | 0.00 | 0.00 | 76 | 1015.6 |
| 20260903132515 | 75 | 92 | 3.0 | 13.0 | 0.00 | 0.00 | 0.00 | 76 | 1015.6 |
| 20260903132006 | 75 | 315 | 4.0 | 13.0 | 0.00 | 0.00 | 0.00 | 78 | 1015.5 |
| 20260903131520 | 76 | 329 | 6.0 | 11.0 | 0.00 | 0.00 | 0.00 | 81 | 1015.3 |
| 20260903131015 | 76 | 74 | 3.0 | 11.0 | 0.00 | 0.00 | 0.00 | 86 | 1015.0 |
| 20260903130506 | 76 | 33 | 6.0 | 11.0 | 0.00 | 0.00 | 0.00 | 87 | 1014.9 |
| 20260903130023 | 76 | 337 | 5.0 | 11.0 | 0.00 | 0.00 | 0.00 | 86 | 1014.4 |
| 20260903125517 | 76 | 275 | 1.0 | 4.0 | 0.00 | 0.00 | 0.00 | 87 | 1013.8 |
| 20260903125003 | 76 | 227 | 1.0 | 4.0 | 0.00 | 0.00 | 0.00 | 87 | 1013.5 |
| 20260903124529 | 77 | 307 | 0.0 | 2.0 | 0.00 | 0.00 | 0.00 | 86 | 1013.4 |
| 20260903124015 | 77 | 218 | 0.0 | 2.0 | 0.00 | 0.00 | 0.00 | 87 | 1013.4 |
| 20260903123506 | 76 | 194 | 0.0 | 2.0 | 0.00 | 0.00 | 0.00 | 88 | 1013.5 |
| 20260903123025 | 76 | 205 | 0.0 | 2.0 | 0.00 | 0.00 | 0.00 | 89 | 1013.5 |
| 20260903122516 | 75 | 232 | 0.0 | 2.0 | 0.00 | 0.00 | 0.00 | 89 | 1013.4 |
| 20260903122010 | 75 | 196 | 1.0 | 2.0 | 0.00 | 0.00 | 0.00 | 90 | 1013.4 |
| 20260903121532 | 75 | 291 | 0.0 | 2.0 | 0.00 | 0.00 | 0.00 | 90 | 1013.5 |
| 20260903121016 | 74 | 223 | 0.0 | 2.0 | 0.00 | 0.00 | 0.00 | 90 | 1013.5 |
| 20260903120509 | 74 | 213 | 0.0 | 2.0 | 0.00 | 0.00 | 0.00 | 91 | 1013.6 |
| 20260903120045 | 74 | 201 | 0.0 | 2.0 | 0.00 | 0.00 | 0.00 | 91 | 1013.5 |
| 20260903115515 | 74 | 220 | 0.0 | 2.0 | 0.00 | 0.00 | 0.00 | 91 | 1013.6 |
| 20260903115013 | 74 | 230 | 0.0 | 1.0 | 0.00 | 0.00 | 0.00 | 91 | 1013.6 |
| 20260903114532 | 73 | 232 | 0.0 | 0.0 | 0.00 | 0.00 | 0.00 | 91 | 1013.5 |
| 20260903114005 | 73 | 185 | 0.0 | 0.0 | 0.00 | 0.00 | 0.00 | 91 | 1013.5 |
| 20260903113513 | 73 | 190 | 0.0 | 0.0 | 0.00 | 0.00 | 0.00 | 91 | 1013.6 |
| 20260903113004 | 73 | 194 | 0.0 | 0.0 | 0.00 | 0.00 | 0.00 | 91 | 1013.6 |
| 20260903112504 | 73 | 209 | 0.0 | 0.0 | 0.00 | 0.00 | 0.00 | 91 | 1013.7 |
| 20260903112023 | 73 | 213 | 0.0 | 0.0 | 0.00 | 0.00 | 0.00 | 91 | 1013.7 |
| 20260903111508 | 73 | 218 | 0.0 | 0.0 | 0.00 | 0.00 | 0.00 | 91 | 1013.7 |
| 20260903111010 | 73 | 65 | 0.0 | 0.0 | 0.00 | 0.00 | 0.00 | 91 | 1013.6 |
| 20260903110513 | 74 | 65 | 0.0 | 0.0 | 0.00 | 0.00 | 0.00 | 91 | 1013.6 |
| 20260903110004 | 74 | 65 | 0.0 | 0.0 | 0.00 | 0.00 | 0.00 | 91 | 1013.5 |
| 20260903105507 | 74 | 65 | 0.0 | 0.0 | 0.00 | 0.00 | 0.00 | 91 | 1013.4 |
| 20260903105014 | 74 | 65 | 0.0 | 0.0 | 0.00 | 0.00 | 0.00 | 90 | 1013.5 |
| 20260903104508 | 74 | 65 | 0.0 | 0.0 | 0.00 | 0.00 | 0.00 | 91 | 1013.3 |
| 20260903104009 | 74 | 65 | 0.0 | 2.0 | 0.00 | 0.00 | 0.00 | 90 | 1013.3 |
| 20260903103513 | 74 | 65 | 0.0 | 2.0 | 0.00 | 0.00 | 0.00 | 90 | 1013.3 |
| 20260903103006 | 74 | 65 | 0.0 | 2.0 | 0.00 | 0.00 | 0.00 | 90 | 1013.3 |
| 20260903102510 | 74 | 65 | 0.0 | 2.0 | 0.00 | 0.00 | 0.00 | 90 | 1013.4 |
| 20260903102014 | 74 | 55 | 0.0 | 2.0 | 0.00 | 0.00 | 0.00 | 91 | 1013.4 |
| 20260903101521 | 74 | 54 | 0.0 | 2.0 | 0.00 | 0.00 | 0.00 | 91 | 1013.4 |
| 20260903101015 | 74 | 54 | 0.0 | 2.0 | 0.00 | 0.00 | 0.00 | 91 | 1013.3 |
| 20260903100515 | 74 | 51 | 0.0 | 2.0 | 0.00 | 0.00 | 0.00 | 91 | 1013.4 |
| 20260903100021 | 74 | 39 | 0.0 | 2.0 | 0.00 | 0.00 | 0.00 | 91 | 1013.5 |
| 20260903095509 | 74 | 58 | 1.0 | 2.0 | 0.00 | 0.00 | 0.00 | 91 | 1013.5 |
| 20260903095014 | 74 | 53 | 1.0 | 2.0 | 0.00 | 0.00 | 0.00 | 91 | 1013.5 |
| 20260903094525 | 74 | 54 | 1.0 | 2.0 | 0.00 | 0.00 | 0.00 | 91 | 1013.5 |
| 20260903094012 | 74 | 73 | 0.0 | 2.0 | 0.00 | 0.00 | 0.00 | 91 | 1013.7 |